Weather History for International Falls, MN

Change the Weather History Date:

Friday, February 21, 2014

  Actual Average Record
Temperature  
Mean Temperature 11 °F 13 °F  
Max Temperature 19 °F 24 °F 50 °F (2000)
Min Temperature 2 °F 1 °F -32 °F (1966)
Degree Days  
Heating Degree Days 54 52  
Month to date heating degree days 1335 1176  
Since 1 July heating degree days 7950 7229  
Cooling Degree Days 0 0  
Month to date cooling degree days 0 0  
Year to date cooling degree days 0 0  
Moisture  
Dew Point 4 °F    
Average Humidity 80    
Maximum Humidity 88    
Minimum Humidity 72    
Precipitation  
Precipitation 0.13 in 0.02 in 0.32 in (1917)
Month to date precipitation 0.88 0.39  
Year to date precipitation 1.70 1.01  
Snow  
Snow 5.20 in 0.40 in 7.00 in (1991)
Month to date snowfall 19.9 8.0  
Since 1 July snowfall 74.1 54.0  
Snow Depth 32.00 in    
Sea Level Pressure  
Sea Level Pressure 29.35 in    
Wind  
Wind Speed 17 mph (WNW)    
Max Wind Speed 24 mph    
Max Gust Speed 34 mph    
Visibility 2 miles    
Events Snow    
T = Trace of Precipitation, MM = Missing Value Source: NWS Daily Summary

Daily Weather History Graph

Daily Weather History Graph

Search for Another Location

Airport:

Trip Planner

Search our weather history database for the weather conditions in past years. The results will help you decide how hot, cold, wet, or windy it might be!

Date:

Astronomy

Feb. 21, 2014 Rise Set
Actual Time 7:10 AM CST 5:44 PM CST
Civil Twilight 6:38 AM CST 6:16 PM CST
Nautical Twilight 6:01 AM CST 6:53 PM CST
Astronomical Twilight 5:25 AM CST 7:29 PM CST
Moon 12:09 AM CST 10:02 AM CST
Length of Visible Light 11h 38m
Length of Day
10h 34m
Waning Gibbous, 60% of the Moon is Illuminated
Feb 21
Waning Gibbous
Feb 22
Last Quarter
Mar 1
New
Mar 8
First Quarter
Mar 16
Full

Hourly Weather History & Observations

Time (CST) Temp. Windchill Dew Point Humidity Pressure Visibility Wind Dir Wind Speed Gust Speed Precip Events Conditions
12:09 AM 18.0 °F 3.1 °F 14.0 °F 84% 29.36 in 1.0 mi NW 16.1 mph - 0.01 in Snow Light Snow
12:40 AM 17.1 °F 0.6 °F 12.9 °F 84% 29.34 in 1.2 mi NW 19.6 mph 24.2 mph 0.02 in Snow Light Snow
12:55 AM 16.0 °F -0.9 °F 12.0 °F 84% 29.39 in 1.2 mi NW 19.6 mph - 0.03 in Snow Light Snow
1:14 AM 16.0 °F 0.6 °F 12.0 °F 84% 29.33 in 2.0 mi NW 16.1 mph - 0.00 in Snow Light Snow
1:26 AM 16.0 °F -0.9 °F 12.0 °F 84% 29.32 in 1.5 mi NW 19.6 mph - 0.00 in Snow Light Snow
1:52 AM 15.8 °F -1.1 °F 10.4 °F 79% 29.30 in 1.0 mi NW 19.6 mph - 0.01 in Snow Light Snow
1:55 AM 16.0 °F -0.4 °F 10.9 °F 81% 29.35 in 1.0 mi NW 18.4 mph - 0.01 in Snow Light Snow
2:10 AM 15.1 °F -1.1 °F 12.0 °F 88% 29.29 in 1.2 mi NW 17.3 mph - 0.01 in Snow Light Snow
2:55 AM 15.1 °F -0.6 °F 10.9 °F 84% 29.33 in 2.0 mi NW 16.1 mph - 0.01 in Snow Light Snow
3:14 AM 15.1 °F -2.9 °F 10.9 °F 84% 29.26 in 1.8 mi NW 21.9 mph 26.5 mph 0.00 in Snow Light Snow
3:25 AM 15.1 °F -1.6 °F 10.0 °F 80% 29.25 in 2.5 mi NW 18.4 mph - 0.00 in Snow Light Snow
3:35 AM 15.1 °F -2.0 °F 10.0 °F 80% 29.25 in 3.0 mi NW 19.6 mph 27.6 mph 0.00 in Snow Light Snow
3:55 AM 15.1 °F -1.6 °F 10.0 °F 80% 29.31 in 2.5 mi NW 18.4 mph - 0.00 in Snow Light Snow
4:04 AM 14.0 °F -3.4 °F 10.0 °F 84% 29.25 in 1.8 mi NNW 19.6 mph - 0.00 in Snow Light Snow
4:55 AM 14.0 °F -3.0 °F 9.0 °F 80% 29.31 in 1.2 mi NW 18.4 mph 27.6 mph 0.01 in Snow Light Snow
5:30 AM 12.9 °F -3.4 °F 9.0 °F 84% 29.26 in 2.0 mi NW 16.1 mph 25.3 mph 0.01 in Snow Light Snow
5:55 AM 12.9 °F -3.9 °F 8.1 °F 81% 29.31 in 2.0 mi NW 17.3 mph - 0.01 in Snow Light Snow
6:07 AM 12.9 °F -4.9 °F 8.1 °F 81% 29.25 in 1.8 mi NW 19.6 mph - 0.00 in Snow Light Snow
6:14 AM 12.9 °F -4.9 °F 8.1 °F 81% 29.24 in 2.0 mi WNW 19.6 mph 28.8 mph 0.00 in Snow Light Snow
6:22 AM 12.9 °F -4.4 °F 8.1 °F 81% 29.24 in 1.8 mi WNW 18.4 mph - 0.00 in Snow Light Snow
6:55 AM 10.9 °F -7.9 °F 6.1 °F 81% 29.30 in 1.0 mi WNW 20.7 mph - 0.00 in Snow Light Snow
7:41 AM 10.0 °F -8.6 °F 5.0 °F 80% 29.23 in 1.2 mi WNW 19.6 mph - 0.01 in Snow Light Snow
7:55 AM 10.0 °F -7.6 °F 3.9 °F 76% 29.30 in 1.5 mi WNW 17.3 mph - 0.01 in Snow Light Snow
8:55 AM 8.1 °F -11.7 °F 1.9 °F 76% 29.30 in 1.2 mi WNW 20.7 mph 27.6 mph 0.00 in Snow Light Snow
9:31 AM 7.0 °F -11.0 °F 1.0 °F 77% 29.23 in 2.0 mi WNW 16.1 mph 28.8 mph 0.00 in Snow Light Snow
9:45 AM 7.0 °F -12.6 °F 1.0 °F 77% 29.24 in 1.8 mi WNW 19.6 mph 25.3 mph 0.00 in Snow Light Snow
9:55 AM 7.0 °F -11.6 °F 1.0 °F 77% 29.31 in 0.8 mi WNW 17.3 mph - 0.00 in Snow Light Snow
10:50 AM 6.8 °F -12.4 °F 1.4 °F 79% 29.24 in 1.2 mi WNW 18.4 mph 28.8 mph 0.01 in Snow Light Snow
10:55 AM 7.0 °F -11.6 °F 1.0 °F 77% 29.31 in 1.8 mi WNW 17.3 mph 28.8 mph 0.01 in Snow Light Snow
11:03 AM 7.0 °F -12.6 °F 1.0 °F 77% 29.24 in 2.5 mi West 19.6 mph 28.8 mph 0.00 in Snow Light Snow
11:11 AM 7.0 °F -12.6 °F 1.0 °F 77% 29.24 in 3.0 mi WNW 19.6 mph 28.8 mph 0.00 in Snow Light Snow
11:21 AM 7.0 °F -14.0 °F 1.0 °F 77% 29.25 in 2.5 mi WNW 23.0 mph 29.9 mph 0.00 in Snow Light Snow
11:28 AM 7.0 °F -12.1 °F 1.0 °F 77% 29.25 in 1.8 mi WNW 18.4 mph 29.9 mph 0.00 in Snow Light Snow
11:55 AM 7.0 °F -11.0 °F -0.0 °F 73% 29.33 in 0.5 mi WNW 16.1 mph 28.8 mph 0.00 in Snow Snow
12:30 PM 7.0 °F -13.6 °F 1.0 °F 77% 29.26 in 1.0 mi WNW 21.9 mph 28.8 mph 0.01 in Snow Light Snow
12:39 PM 7.0 °F -11.6 °F 1.0 °F 77% 29.26 in 0.8 mi WNW 17.3 mph 28.8 mph 0.01 in Snow Light Snow
12:55 PM 7.0 °F -11.0 °F 1.0 °F 77% 29.34 in 0.5 mi WNW 16.1 mph - 0.02 in Snow Snow
1:08 PM 7.0 °F -9.8 °F 1.0 °F 77% 29.27 in 0.5 mi WNW 13.8 mph 25.3 mph 0.00 in Snow Snow
1:55 PM 7.0 °F -12.6 °F 1.0 °F 77% 29.36 in 0.8 mi WNW 19.6 mph 25.3 mph 0.01 in Snow Light Snow
2:08 PM 7.0 °F -12.6 °F -0.0 °F 73% 29.28 in 1.0 mi West 19.6 mph 27.6 mph 0.00 in Snow Light Snow
2:55 PM 8.1 °F -11.2 °F 1.0 °F 73% 29.39 in 1.2 mi WNW 19.6 mph 27.6 mph 0.00 in Snow Light Snow
3:55 PM 7.0 °F -10.4 °F 1.0 °F 77% 29.42 in 1.2 mi West 15.0 mph 24.2 mph 0.00 in Snow Light Snow
4:50 PM 6.8 °F -12.4 °F -0.4 °F 72% 29.37 in 0.8 mi WNW 18.4 mph 25.3 mph 0.00 in Snow Light Snow
4:55 PM 7.0 °F -11.6 °F 1.0 °F 77% 29.45 in 1.0 mi West 17.3 mph 25.3 mph 0.00 in Snow Light Snow
5:30 PM 7.0 °F -12.1 °F -0.0 °F 73% 29.39 in 0.8 mi WNW 18.4 mph 26.5 mph 0.00 in Snow Light Snow
5:55 PM 6.1 °F -13.3 °F 1.0 °F 80% 29.48 in 0.8 mi WNW 18.4 mph 25.3 mph 0.01 in Snow Light Snow
6:02 PM 6.1 °F -12.8 °F 1.0 °F 80% 29.41 in 1.2 mi WNW 17.3 mph - 0.00 in Snow Light Snow
6:55 PM 5.0 °F -15.2 °F -0.0 °F 80% 29.52 in 1.5 mi West 19.6 mph 25.3 mph 0.00 in Snow Light Snow
7:29 PM 5.0 °F -14.7 °F -0.9 °F 76% 29.45 in 2.0 mi WNW 18.4 mph 27.6 mph 0.00 in Snow Light Snow
7:55 PM 5.0 °F -16.2 °F -2.0 °F 73% 29.55 in 2.5 mi WNW 21.9 mph 25.3 mph 0.00 in Snow Light Snow
8:07 PM 3.9 °F -17.1 °F -2.0 °F 76% 29.47 in 3.0 mi WNW 20.7 mph 27.6 mph 0.00 in Snow Light Snow
8:25 PM 3.9 °F -14.3 °F -2.0 °F 76% 29.47 in 2.0 mi West 15.0 mph 27.6 mph 0.00 in Snow Light Snow
8:40 PM 3.9 °F -15.6 °F -2.0 °F 76% 29.47 in 4.0 mi West 17.3 mph 23.0 mph 0.00 in Snow Light Snow
8:55 PM 3.9 °F -14.3 °F -2.0 °F 76% 29.57 in 4.0 mi WNW 15.0 mph 23.0 mph 0.00 in Snow Light Snow
9:55 PM 3.9 °F -13.7 °F -2.9 °F 73% 29.58 in 9.0 mi WNW 13.8 mph - 0.00 in   Overcast
10:55 PM 3.0 °F -14.8 °F -4.0 °F 73% 29.60 in 8.0 mi West 13.8 mph 26.5 mph 0.00 in   Overcast
11:55 PM 1.9 °F -18.1 °F -4.0 °F 76% 29.62 in 4.0 mi WNW 17.3 mph 25.3 mph 0.00 in Snow Light Snow